TJS-3 (43874 NORAD) Tracking and Keplerian Element Data

This shows tracking and keplerian element data for the satellite.

Feedback or suggestion? Click here.




ElementValue
Catalog43874
NameTJS-3
Epoch Orbit33
Epoch Day17.77155737
Epoch Year2019
RAAN245.146
Inclination0.0743
Eccentricity0.0002122
Argument of Perigee336.7631
Mean Anonmoly231.6912
Mean Motion1.00273833
Decay Rate6.5E-07
L11 43874U 18110A 19017.77155737 .00000065 00000-0 00000+0 0 9997
L22 43874 0.0743 245.1460 0002122 336.7631 231.6912 1.00273833 337

Live tracking and technical data element details for TJS-3 (NORAD 43874). TJS-3 can be tracked NOW for your location showing map with azimuth and elevation plus other details from your city location.

Track the satellite on the map from your city or location and see movement details for azimuth, elevation, latitude, longitude, range, height, and movement on the map or in text.







IsCatalogInMostPopularTable: catalog: 43874, numindb: 17
Update: records affected: 1



GetName: 43874 TJS-3

Hit Count: updated at: Fri, 18 Jan 2019 21:38:03 GMT